Tracking 19170 objects as of 22-May-2018
HD Live streaming from Space Station
objects crossing your sky now

NOAA 16 DEB

Track NOAA 16 DEB now!
10-day predictions


NORAD ID: 41209
Int'l Code: 2000-055DN
Perigee: 754.2 km
Apogee: 854.4 km
Inclination: 98.9 °
Period: 100.8 minutes
Semi major axis: 7175 km
RCS: Unknown
Launch date: September 21, 2000
Source: United States (US)
Launch site: AIR FORCE WESTERN TEST RANGE (AFWTR)

Note: This is SATELLITE DEBRIS
aabbcc
Your satellite tracking list
Your tracking list is empty




NASA's NSSDC Master Catalog

Two Line Element Set (TLE):
1 41209U 00055DN  18141.21455447 +.00001021 +00000-0 +41575-3 0  9992
2 41209 098.8507 235.9454 0069855 352.1472 007.8609 14.28379452126514
Source of the keplerian elements: AFSPC